Weather History for Grand Marais Airport, MN

Change the Weather History Date:

Friday, December 13, 2013

  Actual Average Record
Temperature  
Mean Temperature -12 °F -  
Max Temperature -5 °F 23 °F 37 °F (2014)
Min Temperature -18 °F 10 °F -18 °F (2013)
Degree Days  
Heating Degree Days 76    
Moisture  
Dew Point -23 °F    
Average Humidity 61    
Maximum Humidity 70    
Minimum Humidity 45    
Precipitation  
Precipitation 0.00 in - - ()
Sea Level Pressure  
Sea Level Pressure 30.20 in    
Wind  
Wind Speed 10 mph (NNW)    
Max Wind Speed 20 mph    
Max Gust Speed 26 mph    
Visibility 10 miles    
Events      
Averages and records for this station are not official NWS values.
T = Trace of Precipitation, MM = Missing Value Source: NWS Daily Summary

Daily Weather History Graph

Daily Weather History Graph

Search for Another Location

Airport:

Trip Planner

Search our weather history database for the weather conditions in past years. The results will help you decide how hot, cold, wet, or windy it might be!

Date:

Astronomy

Dec. 13, 2013 Rise Set
Actual Time 7:42 AM CST 4:09 PM CST
Civil Twilight 7:06 AM CST 4:45 PM CST
Nautical Twilight 6:27 AM CST 5:24 PM CST
Astronomical Twilight 5:49 AM CST 6:02 PM CST
Moon 2:02 PM CST (12/13) 3:53 AM CST (12/13)
Length of Visible Light 9h 38m
Length of Day
8h 26m
Waxing Gibbous, 88% of the Moon is Illuminated
Dec 13
Waxing Gibbous
Dec 17
Full
Dec 25
Last Quarter
Jan 1
New
Jan 7
First Quarter

Hourly Weather History & Observations

Time (CST) Temp. Windchill Dew Point Humidity Pressure Visibility Wind Dir Wind Speed Gust Speed Precip Events Conditions
12:14 AM -11.2 °F -27.8 °F -18.4 °F 70% 30.07 in 10.0 mi NW 8.1 mph - N/A   Clear
12:33 AM -11.2 °F -29.0 °F -20.2 °F 64% 30.07 in 10.0 mi NW 9.2 mph - N/A   Scattered Clouds
12:54 AM -11.2 °F -30.1 °F -20.2 °F 64% 30.07 in 10.0 mi NW 10.4 mph 17.3 mph N/A   Scattered Clouds
1:13 AM -11.2 °F -31.1 °F -20.2 °F 64% 30.08 in 10.0 mi NW 11.5 mph - N/A   Scattered Clouds
1:34 AM -11.2 °F -31.1 °F -20.2 °F 64% 30.07 in 10.0 mi NW 11.5 mph - N/A   Scattered Clouds
1:53 AM -11.2 °F -34.4 °F -20.2 °F 64% 30.07 in 10.0 mi NNW 16.1 mph 20.7 mph N/A   Scattered Clouds
2:14 AM -13.0 °F -37.5 °F -20.2 °F 70% 30.08 in 10.0 mi NW 17.3 mph 23.0 mph N/A   Scattered Clouds
2:33 AM -13.0 °F -37.5 °F -20.2 °F 70% 30.08 in 10.0 mi NNW 17.3 mph 23.0 mph N/A   Scattered Clouds
2:54 AM -13.0 °F -37.5 °F -20.2 °F 70% 30.08 in 7.0 mi NW 17.3 mph 26.5 mph N/A   Scattered Clouds
3:14 AM -14.8 °F -41.2 °F -22.0 °F 70% 30.08 in 7.0 mi NNW 19.6 mph 26.5 mph N/A   Clear
3:33 AM -14.8 °F -38.3 °F -22.0 °F 70% 30.08 in 10.0 mi NNW 15.0 mph 25.3 mph N/A   Clear
3:54 AM -14.8 °F -37.5 °F -22.0 °F 70% 30.08 in 10.0 mi NNW 13.8 mph 25.3 mph N/A   Clear
4:14 AM -14.8 °F -35.6 °F -23.8 °F 64% 30.08 in 10.0 mi NW 11.5 mph 19.6 mph N/A   Clear
4:33 AM -14.8 °F -33.5 °F -23.8 °F 64% 30.10 in 10.0 mi NW 9.2 mph 19.6 mph N/A   Clear
4:54 AM -14.8 °F -29.1 °F -23.8 °F 64% 30.11 in 10.0 mi NW 5.8 mph - N/A   Clear
5:14 AM -14.8 °F -29.1 °F -23.8 °F 64% 30.11 in 10.0 mi NW 5.8 mph - N/A   Clear
5:34 AM -14.8 °F -30.8 °F -23.8 °F 64% 30.12 in 10.0 mi NW 6.9 mph - N/A   Clear
5:53 AM -14.8 °F -27.2 °F -23.8 °F 64% 30.12 in 10.0 mi NNW 4.6 mph - N/A   Clear
6:13 AM -14.8 °F -29.1 °F -23.8 °F 64% 30.13 in 10.0 mi NW 5.8 mph - N/A   Clear
6:33 AM -14.8 °F -29.1 °F -23.8 °F 64% 30.15 in 10.0 mi NW 5.8 mph - N/A   Scattered Clouds
6:53 AM -14.8 °F -27.2 °F -23.8 °F 64% 30.15 in 10.0 mi NW 4.6 mph - N/A   Scattered Clouds
7:13 AM -16.6 °F -32.9 °F -23.8 °F 70% 30.16 in 10.0 mi NW 6.9 mph - N/A   Scattered Clouds
7:34 AM -16.6 °F -31.3 °F -25.6 °F 64% 30.17 in 10.0 mi NNW 5.8 mph - N/A   Scattered Clouds
7:53 AM -18.4 °F -40.2 °F -25.6 °F 70% 30.17 in 10.0 mi NNW 11.5 mph - N/A   Scattered Clouds
8:14 AM -16.6 °F -38.9 °F -25.6 °F 64% 30.17 in 10.0 mi NNW 12.7 mph 18.4 mph N/A   Clear
8:34 AM -16.6 °F -38.9 °F -25.6 °F 64% 30.17 in 10.0 mi NNW 12.7 mph 18.4 mph N/A   Clear
8:54 AM -16.6 °F -40.6 °F -25.6 °F 64% 30.17 in 10.0 mi NNW 15.0 mph 21.9 mph N/A   Clear
9:13 AM -16.6 °F -38.9 °F -25.6 °F 64% 30.19 in 10.0 mi NNW 12.7 mph 17.3 mph N/A   Clear
9:34 AM -14.8 °F -37.5 °F -25.6 °F 58% 30.19 in 10.0 mi NNW 13.8 mph 18.4 mph N/A   Clear
9:53 AM -14.8 °F -34.6 °F -25.6 °F 58% 30.20 in 10.0 mi NNW 10.4 mph 19.6 mph N/A   Clear
10:13 AM -13.0 °F -32.4 °F -23.8 °F 59% 30.20 in 10.0 mi North 10.4 mph 16.1 mph N/A   Clear
10:34 AM -11.2 °F -31.1 °F -23.8 °F 54% 30.20 in 10.0 mi NNW 11.5 mph 20.7 mph N/A   Clear
10:53 AM -9.4 °F -27.9 °F -23.8 °F 49% 30.21 in 10.0 mi NNW 10.4 mph - N/A   Clear
11:14 AM -11.2 °F -29.0 °F -23.8 °F 54% 30.21 in 10.0 mi NNW 9.2 mph - N/A   Clear
11:34 AM -11.2 °F -27.8 °F -23.8 °F 54% 30.21 in 10.0 mi North 8.1 mph - N/A   Clear
11:53 AM -9.4 °F -22.7 °F -23.8 °F 49% 30.21 in 10.0 mi NNW 5.8 mph - N/A   Clear
12:14 PM -7.6 °F -22.1 °F -23.8 °F 45% 30.21 in 10.0 mi NNW 6.9 mph - N/A   Clear
12:34 PM -7.6 °F -24.6 °F -22.0 °F 50% 30.20 in 10.0 mi NNW 9.2 mph - N/A   Clear
12:53 PM -7.6 °F -22.1 °F -20.2 °F 54% 30.21 in 10.0 mi NW 6.9 mph - N/A   Clear
1:14 PM -7.6 °F -20.6 °F -22.0 °F 50% 30.21 in 10.0 mi NNW 5.8 mph - N/A   Clear
1:33 PM -9.4 °F -22.7 °F -22.0 °F 54% 30.21 in 10.0 mi NNW 5.8 mph - N/A   Clear
1:53 PM -7.6 °F -23.4 °F -20.2 °F 54% 30.21 in 10.0 mi NNW 8.1 mph - N/A   Clear
2:14 PM -5.8 °F -19.9 °F -20.2 °F 50% 30.21 in 10.0 mi NNW 6.9 mph - N/A   Clear
2:34 PM -5.8 °F -21.2 °F -20.2 °F 50% 30.21 in 10.0 mi NNW 8.1 mph - N/A   Clear
2:51 PM -7.6 °F -18.8 °F -20.2 °F 54% 30.23 in 10.0 mi NW 4.6 mph - N/A   Clear
3:13 PM -7.6 °F -20.6 °F -20.2 °F 54% 30.23 in 10.0 mi NNW 5.8 mph - N/A   Clear
3:34 PM -9.4 °F -25.6 °F -20.2 °F 59% 30.23 in 10.0 mi North 8.1 mph - N/A   Clear
3:54 PM -9.4 °F -24.3 °F -20.2 °F 59% 30.24 in 10.0 mi North 6.9 mph - N/A   Clear
4:13 PM -9.4 °F -26.8 °F -20.2 °F 59% 30.24 in 10.0 mi NNW 9.2 mph - N/A   Clear
4:33 PM -11.2 °F -26.4 °F -20.2 °F 64% 30.25 in 10.0 mi NNW 6.9 mph - N/A   Clear
4:54 PM -11.2 °F -24.8 °F -22.0 °F 59% 30.26 in 10.0 mi NNW 5.8 mph - N/A   Scattered Clouds
5:13 PM -11.2 °F -27.8 °F -22.0 °F 59% 30.26 in 10.0 mi NNW 8.1 mph - N/A   Scattered Clouds
5:34 PM -11.2 °F -29.0 °F -22.0 °F 59% 30.26 in 10.0 mi NNW 9.2 mph - N/A   Scattered Clouds
5:53 PM -11.2 °F -27.8 °F -22.0 °F 59% 30.27 in 10.0 mi NNW 8.1 mph - N/A   Scattered Clouds
6:13 PM -11.2 °F -27.8 °F -22.0 °F 59% 30.27 in 10.0 mi North 8.1 mph - N/A   Scattered Clouds
6:34 PM -13.0 °F -31.3 °F -22.0 °F 64% 30.27 in 10.0 mi North 9.2 mph - N/A   Scattered Clouds
6:53 PM -13.0 °F -30.0 °F -22.0 °F 64% 30.27 in 10.0 mi North 8.1 mph - N/A   Scattered Clouds
7:14 PM -11.2 °F -29.0 °F -22.0 °F 59% 30.27 in 10.0 mi North 9.2 mph - N/A   Clear
7:34 PM -13.0 °F -31.3 °F -23.8 °F 59% 30.27 in 10.0 mi North 9.2 mph - N/A   Clear
7:53 PM -13.0 °F -32.4 °F -23.8 °F 59% 30.28 in 10.0 mi NNW 10.4 mph - N/A   Clear
8:14 PM -13.0 °F -31.3 °F -23.8 °F 59% 30.29 in 10.0 mi North 9.2 mph - N/A   Clear
8:33 PM -13.0 °F -30.0 °F -23.8 °F 59% 30.28 in 10.0 mi North 8.1 mph - N/A   Clear
8:54 PM -13.0 °F -31.3 °F -23.8 °F 59% 30.29 in 10.0 mi North 9.2 mph - N/A   Scattered Clouds
9:14 PM -13.0 °F -28.6 °F -23.8 °F 59% 30.29 in 10.0 mi NNW 6.9 mph - N/A   Clear
9:33 PM -13.0 °F -27.0 °F -23.8 °F 59% 30.29 in 10.0 mi NNW 5.8 mph - N/A   Scattered Clouds
9:53 PM -14.8 °F -24.8 °F -23.8 °F 64% 30.29 in 10.0 mi NNW 3.5 mph - N/A   Scattered Clouds
10:14 PM -14.8 °F -30.8 °F -23.8 °F 64% 30.29 in 10.0 mi NNW 6.9 mph - N/A   Clear
10:33 PM -14.8 °F -29.1 °F -23.8 °F 64% 30.29 in 10.0 mi North 5.8 mph - N/A   Clear
10:53 PM -14.8 °F -30.8 °F -23.8 °F 64% 30.29 in 10.0 mi NNW 6.9 mph - N/A   Scattered Clouds
11:14 PM -14.8 °F -32.2 °F -23.8 °F 64% 30.29 in 10.0 mi North 8.1 mph - N/A   Scattered Clouds
11:34 PM -14.8 °F -29.1 °F -23.8 °F 64% 30.29 in 10.0 mi North 5.8 mph - N/A   Scattered Clouds
11:54 PM -14.8 °F -29.1 °F -23.8 °F 64% 30.29 in 10.0 mi NNW 5.8 mph - N/A   Clear